Weather History for Whiteman AFB, MO

Change the Weather History Date:

Tuesday, February 5, 2013

  Actual Average Record
Temperature  
Mean Temperature 38 °F -  
Max Temperature 56 °F 41 °F 98 °F (2003)
Min Temperature 21 °F 23 °F 1 °F (2014)
Degree Days  
Heating Degree Days 26    
Moisture  
Dew Point 29 °F    
Average Humidity 74    
Maximum Humidity 99    
Minimum Humidity 40    
Precipitation  
Precipitation 0.00 in - - ()
Sea Level Pressure  
Sea Level Pressure 30.01 in    
Wind  
Wind Speed 6 mph (West)    
Max Wind Speed 16 mph    
Max Gust Speed 20 mph    
Visibility 10 miles    
Events      
Averages and records for this station are not official NWS values.
T = Trace of Precipitation, MM = Missing Value Source: NWS Daily Summary

Daily Weather History Graph

Daily Weather History Graph

Search for Another Location

Airport:

Trip Planner

Search our weather history database for the weather conditions in past years. The results will help you decide how hot, cold, wet, or windy it might be!

Date:

Astronomy

Feb. 05, 2013 Rise Set
Actual Time 7:16 AM CST 5:40 PM CST
Civil Twilight 6:48 AM CST 6:08 PM CST
Nautical Twilight 6:16 AM CST 6:40 PM CST
Astronomical Twilight 5:45 AM CST 7:11 PM CST
Moon 2:57 AM CST (2/5) 1:00 PM CST (2/5)
Length of Visible Light 11h 20m
Length of Day
10h 24m
Waning Crescent, 26% of the Moon is Illuminated
Feb 5
Waning Crescent
Feb 10
New
Feb 17
First Quarter
Feb 25
Full
Mar 4
Last Quarter

Hourly Weather History & Observations

Time (CST) Temp. Windchill Dew Point Humidity Pressure Visibility Wind Dir Wind Speed Gust Speed Precip Events Conditions
12:55 AM 23.5 °F - 23.4 °F 99% 29.98 in 10.0 mi Calm Calm - N/A   Clear
1:55 AM 23.2 °F - 23.0 °F 99% 29.98 in 10.0 mi Calm Calm - N/A   Clear
2:55 AM 21.7 °F 17.0 °F 21.6 °F 99% 29.96 in 10.0 mi South 3.5 mph - N/A   Mostly Cloudy
3:55 AM 25.0 °F 18.1 °F 24.8 °F 99% 29.94 in 10.0 mi South 5.8 mph - N/A   Overcast
4:55 AM 25.2 °F 16.5 °F 25.0 °F 99% 29.95 in 10.0 mi SSW 8.1 mph - N/A   Scattered Clouds
5:55 AM 24.4 °F 15.6 °F 24.3 °F 99% 29.94 in 10.0 mi SSW 8.1 mph - N/A   Clear
6:55 AM 26.2 °F 17.8 °F 26.1 °F 99% 29.94 in 10.0 mi SSW 8.1 mph - N/A   Clear
7:55 AM 28.6 °F 20.7 °F 28.2 °F 99% 29.96 in 10.0 mi SW 8.1 mph - N/A   Clear
8:55 AM 32.2 °F 25.8 °F 32.0 °F 99% 29.98 in 10.0 mi West 6.9 mph - N/A   Clear
9:55 AM 38.3 °F 30.9 °F 33.8 °F 84% 29.99 in 10.0 mi West 11.5 mph - N/A   Clear
10:55 AM 44.2 °F 37.0 °F 33.1 °F 65% 29.98 in 10.0 mi West 16.1 mph - N/A   Clear
11:55 AM 48.2 °F - 33.8 °F 58% 29.99 in 10.0 mi West 11.5 mph - N/A   Clear
12:55 PM 53.1 °F - 33.6 °F 48% 29.97 in 10.0 mi West 11.5 mph - N/A   Clear
1:55 PM 56.1 °F - 33.6 °F 43% 29.97 in 10.0 mi WNW 11.5 mph 19.6 mph N/A   Clear
2:55 PM 56.7 °F - 32.2 °F 40% 29.99 in 10.0 mi NW 13.8 mph 19.6 mph N/A   Clear
3:55 PM 55.2 °F - 30.9 °F 40% 30.00 in 10.0 mi NW 11.5 mph - N/A   Clear
4:55 PM 53.4 °F - 32.5 °F 45% 30.01 in 10.0 mi NNW 8.1 mph - N/A   Clear
5:55 PM 47.8 °F - 29.3 °F 49% 30.03 in 10.0 mi NNW 9.2 mph - N/A   Clear
6:55 PM 43.7 °F 39.7 °F 27.7 °F 53% 30.05 in 10.0 mi North 6.9 mph - N/A   Clear
7:55 PM 41.9 °F 37.5 °F 28.0 °F 58% 30.08 in 10.0 mi North 6.9 mph - N/A   Clear
8:55 PM 36.0 °F 29.6 °F 27.7 °F 72% 30.10 in 10.0 mi NNE 8.1 mph - N/A   Clear
9:55 PM 36.9 °F - 28.8 °F 72% 30.12 in 10.0 mi Calm Calm - N/A   Clear
10:55 PM 34.2 °F - 27.9 °F 78% 30.13 in 10.0 mi Calm Calm - N/A   Clear
11:55 PM 35.4 °F 32.6 °F 28.9 °F 77% 30.13 in 10.0 mi East 3.5 mph - N/A   Clear